Location: ??
(35.5619°N, 139.6409°E)
Time: 07:55:04
(UTC+00:00)

Daily predictions for brighter satellites

Satellite Brightness Start Highest point End
(mag) Time Altitude Azimuth Time Altitude Azimuth Time Altitude Azimuth
Atlas Centaur 2 4.2 17:06:34 32° ESE 17:06:34 32° ESE 17:10:30 10° E
Cosmos 1833 Rocket 4.5 17:22:27 28° ENE 17:22:27 28° ENE 17:25:32 10° NE
ATLAS CENTAUR R/B 4.0 17:36:23 22° ENE 17:36:23 22° ENE 17:38:41 10° NE
Cosmos 2082 Rocket 4.4 17:34:38 15° SE 17:36:37 18° E 17:40:19 10° ENE
CZ-2C R/B 4.1 17:38:29 10° NNE 17:41:22 29° NE 17:41:22 29° NE
BREEZE-M DEB (TANK) 3.9 17:49:58 55° NE 17:50:01 55° NE 18:02:17 10° ESE
ARIANE 5 R/B 4.2 17:47:18 10° NE 17:51:35 28° E 17:52:50 25° ESE
ATLAS 3B CENTAUR R/B 4.4 17:50:21 35° S 17:53:01 40° SSE 18:04:36 10° E
Cosmos 1605 Rocket 4.2 17:58:43 64° NNE 17:58:43 64° NNE 18:03:50 10° N
ALOS 4.0 18:03:32 10° N 18:05:31 25° N 18:05:31 25° N
Cosmos 1371 Rocket 4.2 18:18:16 66° NNE 18:18:16 66° NNE 18:22:47 10° NNE
Meteor 1-27 Rocket 4.4 18:21:02 13° SSE 18:26:01 55° E 18:31:42 10° NNE
Helios 1B rocket 3.7 18:23:46 10° NNE 18:26:04 33° NNE 18:26:04 33° NNE
Cosmos 1980 Rocket 4.2 18:24:58 10° N 18:29:37 26° ENE 18:34:16 10° ESE
Meteor 1-10 Rocket 4.0 18:29:34 72° SW 18:30:07 81° W 18:35:44 10° N
CZ-2D R/B 4.3 18:26:20 10° NNE 18:30:09 45° E 18:30:57 39° SE
IRS-P3 Rocket 4.5 18:26:29 10° N 18:31:56 73° WNW 18:32:13 71° W
Tiangong 0.0 18:38:31 25° ESE 18:38:31 25° ESE 18:40:00 10° ESE
Cosmos 1441 Rocket 3.7 18:42:35 51° NNE 18:42:35 51° NNE 18:45:28 10° N
Cosmos 1743 3.5 18:38:06 10° N 18:41:48 49° E 18:45:29 10° SSE
Cosmos 1536 3.6 18:39:47 10° N 18:43:45 52° E 18:47:41 10° SSE
Cosmos 2056 Rocket 3.7 18:47:58 47° WNW 18:47:58 47° WNW 18:52:43 10° N
Cosmos 1346 Rocket 3.8 18:50:09 33° NNW 18:50:09 33° NNW 18:52:36 10° N
Atlas Centaur 2 3.1 18:49:04 37° WSW 18:52:17 59° S 18:59:20 10° ESE
BREEZE M DEB (TANK) 4.5 18:42:32 28° WSW 18:52:23 72° NW 18:57:39 10° NE
Cosmos 1190 Rocket 3.8 18:49:14 10° NNW 18:54:26 77° WSW 18:59:37 10° S
Cosmos 1954 Rocket 4.3 18:49:25 10° NNW 18:54:40 69° ENE 18:59:54 10° SSE
CZ-3 R/B 3.8 18:39:35 25° WSW 18:56:26 55° S 19:04:46 10° E
Cosmos 1420 Rocket 4.2 18:56:29 44° W 18:57:09 47° WNW 19:02:11 10° N
Meteor 1-4 Rocket 2.8 18:53:40 10° N 18:57:17 67° E 19:00:55 10° SSE
IRS-1C 4.3 18:56:33 10° N 19:01:40 48° WNW 19:03:32 34° WSW
USA 234 3.2 18:55:25 10° NE 19:01:59 89° SE 19:06:33 22° SW
Cosmos 1833 Rocket 3.7 19:04:11 26° WNW 19:04:19 26° WNW 19:09:02 10° N
Cosmos 407 Rocket 4.0 18:59:44 10° NW 19:04:37 37° W 19:09:29 10° SSW
Cosmos 44 Rocket 3.2 19:05:03 40° WSW 19:06:28 57° WNW 19:11:06 10° NNE
Cosmos 2100 Rocket 3.8 19:01:05 10° S 19:07:13 75° W 19:13:22 10° N
H-2A R/B 3.3 19:05:18 10° NNE 19:08:53 55° E 19:12:28 10° S
H-2A ROCKET BODY 3.3 19:06:40 27° SW 19:09:30 43° S 19:28:01 10° ESE
Cosmos 2360 4.1 19:06:42 10° NNW 19:12:19 63° WSW 19:17:54 10° S
Cosmos 1633 Rocket 3.2 19:08:24 10° NNW 19:12:33 45° W 19:16:40 10° SSW
Spot 4 Rocket 4.0 19:07:53 10° NNE 19:13:02 86° ESE 19:18:09 10° SSW
ATLAS CENTAUR R/B 2.6 19:12:23 29° WNW 19:13:10 31° NW 19:17:30 10° N
Meteor 1-11 Rocket 3.8 19:08:54 10° NNW 19:14:46 60° W 19:20:34 10° S
Cosmos 2016 Rocket 4.2 19:09:56 10° S 19:16:15 76° E 19:22:37 10° N
CZ-4C R/B 4.2 19:15:14 10° SSE 19:19:11 54° ENE 19:23:20 10° N
Cosmos 2082 Rocket 2.3 19:16:33 20° SW 19:20:11 51° WNW 19:25:39 10° N
GP-B 3.2 19:16:11 10° S 19:20:36 81° E 19:25:02 10° N
CZ-2C R/B 3.8 19:17:28 10° NNW 19:20:44 19° WNW 19:20:44 19° WNW
DELTA 2 R/B (1) 3.9 19:19:03 24° W 19:22:21 59° N 19:27:53 10° ENE
Okean 1 3.2 19:18:55 10° S 19:22:57 76° W 19:27:00 10° N
Cosmos 1933 Rocket 3.8 19:18:59 10° N 19:23:25 71° E 19:27:46 10° SSE
Cosmos 1461 2.8 19:20:08 14° SSW 19:23:28 81° ESE 19:27:33 10° NNE
Meteor 1-29 3.0 19:22:02 10° N 19:25:14 50° WNW 19:27:29 18° SW
COSMOS 2406 3.9 19:24:23 22° WSW 19:27:06 33° WNW 19:32:12 10° N
YAOGAN 6 3.2 19:24:54 10° N 19:28:13 35° WNW 19:29:53 22° WSW
Cosmos 1331 Rocket 4.3 19:24:58 10° S 19:30:04 70° ESE 19:35:12 10° NNE
ARIANE 5 R/B 3.3 19:26:19 10° N 19:30:33 28° WNW 19:33:09 18° WSW
Cosmos 1697 Rocket 3.1 19:28:42 10° NW 19:33:55 40° WSW 19:39:08 10° S
PSLV R/B 3.4 19:31:19 10° N 19:35:39 80° WNW 19:39:54 10° SSW
CZ-2C R/B 3.0 19:31:36 10° SSW 19:36:23 38° W 19:41:16 10° NNW
X-37B 3.0 19:35:02 10° NNW 19:36:25 13° N 19:37:48 10° NNE
SJ-6F 4.4 19:33:17 10° NNE 19:37:27 89° W 19:41:33 10° SSW
Meteor 1-19 Rocket 4.1 19:32:28 10° SSW 19:37:52 61° W 19:43:14 10° N
Cosmos 2228 Rocket 3.8 19:34:53 10° S 19:39:18 57° E 19:43:42 10° NNE
Cosmos 1484 Rocket 4.0 19:37:00 10° NNW 19:40:07 22° WNW 19:41:54 17° WSW
CENTAUR R/B 2.5 19:34:58 11° SW 19:40:12 58° NW 19:46:45 10° NNE
Cosmos 1452 Rocket 3.6 19:35:28 10° SSW 19:40:35 53° WNW 19:45:45 10° N
Cosmos 1110 Rocket 3.9 19:35:44 10° SSW 19:40:58 82° WNW 19:46:12 10° NNE
Cosmos 1515 Rocket 4.3 19:40:12 10° SW 19:44:05 30° WNW 19:48:01 10° NNW
Cosmos 676 Rocket 4.3 19:39:34 10° NNW 19:44:29 43° WSW 19:49:26 10° S
FALCON 9 R/B 2.3 19:48:25 12° SW 19:49:11 14° SSW 19:50:30 10° SSE
ATLAS 3B CENTAUR R/B 4.5 19:38:44 12° WSW 19:49:45 59° S 20:02:23 10° E
Delta 2 Rocket 2.7 19:48:22 16° W 19:50:59 90° SSE 19:54:19 10° E
SJ-12 3.8 19:47:21 10° N 19:51:27 80° W 19:55:31 10° SSW
Cosmos 1975 3.5 19:48:54 10° N 19:52:50 58° E 19:56:43 10° SSE
CZ-2C R/B 3.4 19:51:28 10° NW 19:53:51 29° W 19:59:26 10° SSW
ASTRO E2 3.5 19:51:18 13° WSW 19:54:25 37° S 19:58:03 10° ESE
Cosmos 1802 Rocket 4.4 19:49:49 10° SSW 19:55:49 42° W 20:01:49 10° N
NOSS 3-2 (C) 3.1 19:51:22 10° SW 19:56:35 81° WNW 20:02:34 10° NNE
Lacrosse 4 Rocket 4.0 19:53:31 10° N 19:57:07 24° ENE 20:00:45 10° ESE
Tsikada Rocket 4.1 19:50:52 10° N 19:57:12 86° E 20:03:24 10° S
Envisat 3.9 19:53:39 10° NNW 19:57:55 28° WNW 20:02:11 10° SW
NOSS 3-2 (A) 3.8 19:54:43 10° WSW 19:59:40 38° NW 20:05:18 10° NNE
Cosmos 2233 Rocket 4.0 19:54:08 10° S 20:00:27 80° W 20:06:48 10° N
USA 276 3.9 20:00:51 10° SSW 20:03:30 29° SE 20:06:11 10° ENE
Cosmos 2322 Rocket 4.4 19:59:16 10° N 20:04:08 28° ENE 20:08:57 10° ESE
Cosmos 1725 Rocket 4.3 20:00:26 10° SSW 20:06:25 45° W 20:12:28 10° N
Cosmos 1378 4.2 20:03:45 10° SW 20:06:38 22° WNW 20:09:34 10° NNW
MINOTAUR 4 R/B 4.1 20:04:16 10° S 20:07:41 54° W 20:11:08 10° NNW
USA 238 DEB 3.6 20:06:08 10° SW 20:12:27 71° WNW 20:19:08 10° NNE
USA 238 3.6 20:06:16 10° SW 20:12:34 72° WNW 20:19:15 10° NNE
